| time (UTC) | temp C | wind direction | speed KPH | gust KPH | rain 1hr cm | rain 24hr cm | rain mn cm | humidity % | barometer mb |
| 20260906232525 | 20 | 278 | 3.2 | 14.5 | 0.00 | 0.00 | 0.00 | ||
| 20260906224515 | 21 | 250 | 6.4 | 14.5 | 0.00 | 0.00 | 0.00 | ||
| 20260906220506 | 22 | 176 | 4.8 | 9.7 | 0.00 | 0.00 | 0.00 | ||
| 20260906215144 | 22 | 250 | 1.6 | 9.7 | 0.00 | 0.00 | 0.00 | ||
| 20260906213821 | 22 | 318 | 6.4 | 14.5 | 0.00 | 0.00 | 0.00 | ||
| 20260906212457 | 23 | 233 | 4.8 | 12.9 | 0.00 | 0.00 | 0.00 | ||
| 20260906211134 | 22 | 246 | 11.3 | 22.5 | 0.00 | 0.00 | 0.00 | ||
| 20260906203125 | 23 | 207 | 8.0 | 19.3 | 0.00 | 0.00 | 0.00 | ||
| 20260906201802 | 23 | 242 | 6.4 | 16.1 | 0.00 | 0.00 | 0.00 | ||
| 20260906200440 | 23 | 336 | 3.2 | 14.5 | 0.00 | 0.00 | 0.00 | ||
| 20260906195115 | 22 | 211 | 9.7 | 17.7 | 0.00 | 0.00 | 0.00 | ||
| 20260906183055 | 23 | 226 | 4.8 | 12.9 | 0.00 | 0.00 | 0.00 | ||
| 20260906180406 | 23 | 228 | 4.8 | 14.5 | 0.00 | 0.00 | 0.00 | ||
| 20260906175043 | 23 | 214 | 3.2 | 17.7 | 0.00 | 0.00 | 0.00 | ||
| 20260906173721 | 22 | 243 | 4.8 | 12.9 | 0.00 | 0.00 | 0.00 | ||
| 20260906164350 | 23 | 177 | 3.2 | 12.9 | 0.00 | 0.00 | 0.00 | ||
| 20260906163027 | 22 | 243 | 4.8 | 14.5 | 0.00 | 0.00 | 0.00 | ||
| 20260906160339 | 21 | 221 | 3.2 | 11.3 | 0.00 | 0.00 | 0.00 | ||
| 20260906152325 | 20 | 98 | 1.6 | 8.0 | 0.00 | 0.00 | 0.00 | ||
| 20260906151001 | 16 | 274 | 3.2 | 1.6 | 0.00 | 0.00 | 0.00 | ||
| 20260906145638 | 15 | 339 | 1.6 | 3.2 | 0.00 | 0.00 | 0.00 | ||
| 20260906142953 | 13 | 197 | 0.0 | 6.4 | 0.00 | 0.00 | 0.00 | ||
| 20260906141630 | 13 | 68 | 0.0 | 1.6 | 0.00 | 0.00 | 0.00 | ||
| 20260906140307 | 11 | 69 | 4.8 | 6.4 | 0.00 | 0.00 | 0.00 | ||
| 20260906134944 | 12 | 41 | 0.0 | 0.0 | 0.00 | 0.00 | 0.00 | ||
| 20260906132300 | 7 | 46 | 0.0 | 0.0 | 0.00 | 0.00 | 0.00 | ||
| 20260906130936 | 6 | 60 | 1.6 | 1.6 | 0.00 | 0.00 | 0.00 | ||
| 20260906125613 | 7 | 180 | 0.0 | 4.8 | 0.00 | 0.00 | 0.00 | ||
| 20260906124248 | 7 | 31 | 0.0 | 1.6 | 0.00 | 0.00 | 0.00 | ||
| 20260906122925 | 7 | 68 | 3.2 | 4.8 | 0.00 | 0.00 | 0.00 | ||
| 20260906122043 | 6 | 149 | 0.0 | 0.0 | 0.00 | 0.00 | 0.00 | ||
| 20260906121556 | 6 | 149 | 0.0 | 0.0 | 0.00 | 0.00 | 0.00 | ||
| 20260906114911 | 7 | 8 | 0.0 | 0.0 | 0.00 | 0.00 | 0.00 | ||
| 20260906112225 | 8 | 335 | 0.0 | 0.0 | 0.00 | 0.00 | 0.00 | ||
| 20260906110903 | 8 | 238 | 0.0 | 3.2 | 0.00 | 0.00 | 0.00 | ||
| 20260906105540 | 8 | 53 | 0.0 | 0.0 | 0.00 | 0.00 | 0.00 | ||
| 20260906104217 | 8 | 347 | 3.2 | 1.6 | 0.00 | 0.00 | 0.00 | ||
| 20260906102855 | 9 | 271 | 0.0 | 3.2 | 0.00 | 0.00 | 0.00 | ||
| 20260906100902 | 7 | 77 | 4.8 | 6.4 | 0.00 | 0.00 | 0.00 | ||
| 20260906094216 | 7 | 41 | 0.0 | 6.4 | 0.00 | 0.00 | 0.00 | ||
| 20260906092854 | 8 | 30 | 1.6 | 1.6 | 0.00 | 0.00 | 0.00 | ||
| 20260906090209 | 8 | 20 | 1.6 | 4.8 | 0.00 | 0.00 | 0.00 | ||
| 20260906084844 | 8 | 42 | 1.6 | 3.2 | 0.00 | 0.00 | 0.00 | ||
| 20260906082157 | 8 | 82 | 1.6 | 3.2 | 0.00 | 0.00 | 0.00 | ||
| 20260906080835 | 8 | 83 | 1.6 | 3.2 | 0.00 | 0.00 | 0.00 | ||
| 20260906074149 | 8 | 31 | 1.6 | 4.8 | 0.00 | 0.00 | 0.00 | ||
| 20260906072826 | 8 | 76 | 0.0 | 0.0 | 0.00 | 0.00 | 0.00 | ||
| 20260906070136 | 9 | 32 | 0.0 | 0.0 | 0.00 | 0.00 | 0.00 | ||
| 20260906064813 | 9 | 27 | 1.6 | 1.6 | 0.00 | 0.00 | 0.00 | ||
| 20260906055441 | 11 | 262 | 0.0 | 1.6 | 0.00 | 0.00 | 0.00 | ||
| 20260906054117 | 11 | 343 | 3.2 | 1.6 | 0.00 | 0.00 | 0.00 | ||
| 20260906052755 | 11 | 96 | 0.0 | 3.2 | 0.00 | 0.00 | 0.00 | ||
| 20260906051432 | 10 | 6 | 0.0 | 0.0 | 0.00 | 0.00 | 0.00 | ||
| 20260906050107 | 10 | 6 | 0.0 | 0.0 | 0.00 | 0.00 | 0.00 | ||
| 20260906043421 | 10 | 49 | 3.2 | 0.0 | 0.00 | 0.00 | 0.00 | ||
| 20260906042058 | 11 | 353 | 0.0 | 0.0 | 0.00 | 0.00 | 0.00 | ||
| 20260906040733 | 12 | 353 | 0.0 | 0.0 | 0.00 | 0.00 | 0.00 | ||
| 20260906035411 | 12 | 24 | 0.0 | 3.2 | 0.00 | 0.00 | 0.00 | ||
| 20260906034045 | 12 | 86 | 0.0 | 0.0 | 0.00 | 0.00 | 0.00 | ||
| 20260906031359 | 13 | 1 | 0.0 | 0.0 | 0.00 | 0.00 | 0.00 | ||
| 20260906030037 | 13 | 1 | 0.0 | 0.0 | 0.00 | 0.00 | 0.00 | ||
| 20260906024713 | 15 | 1 | 0.0 | 1.6 | 0.00 | 0.00 | 0.00 | ||
| 20260906023349 | 16 | 44 | 0.0 | 3.2 | 0.00 | 0.00 | 0.00 | ||
| 20260906022027 | 16 | 15 | 0.0 | 0.0 | 0.00 | 0.00 | 0.00 | ||
| 20260906015336 | 18 | 15 | 0.0 | 0.0 | 0.00 | 0.00 | 0.00 | ||
| 20260906011324 | 21 | 215 | 1.6 | 6.4 | 0.00 | 0.00 | 0.00 | ||
| 20260906004637 | 22 | 232 | 6.4 | 14.5 | 0.00 | 0.00 | 0.00 | ||
| 20260906003315 | 22 | 224 | 3.2 | 9.7 | 0.00 | 0.00 | 0.00 | ||
| 20260906001952 | 23 | 274 | 6.4 | 4.8 | 0.00 | 0.00 | 0.00 | ||
| 20260905235306 | 23 | 248 | 11.3 | 20.9 | 0.00 | 0.00 | 0.00 |